EW5862 Weather Reports


time (UTC)temp
C
wind
direction
speed
KPH
gust
KPH
rain 1hr
cm
rain 24hr
cm
rain mn
cm
humidity
%
barometer
mb
20260507123516 18 338 4.8 17.7 0.00 0.00 0.00 55 1009.9
20260507122536 18 338 8.0 20.9 0.00 0.00 0.00 59 1010.0
20260507121516 17 338 3.2 12.9 0.00 0.00 0.00 62 1010.0
20260507120516 16 338 8.0 17.7 0.00 0.00 0.00 62 1010.1
20260507115516 16 338 6.4 19.3 0.00 0.00 0.00 65 1010.0
20260507114536 16 338 12.9 17.7 0.00 0.00 0.00 63 1010.0
20260507113516 16 338 16.1 27.4 0.00 0.00 0.00 60 1010.0
20260507112516 16 338 12.9 24.1 0.00 0.00 0.00 61 1010.1
20260507111516 16 338 16.1 24.1 0.00 0.00 0.00 63 1010.3
20260507110516 16 338 11.3 24.1 0.00 0.00 0.00 66 1010.3
20260507105516 16 338 4.8 14.5 0.00 0.00 0.00 70 1010.4
20260507104516 16 338 3.2 12.9 0.00 0.00 0.00 71 1010.4
20260507103515 16 338 4.8 12.9 0.00 0.00 0.00 72 1010.6
20260507102516 16 338 8.0 17.7 0.00 0.00 0.00 70 1010.6
20260507101516 16 338 4.8 17.7 0.00 0.00 0.00 70 1010.7
20260507100536 16 338 1.6 12.9 0.00 0.00 0.00 70 1010.7
20260507095516 16 338 4.8 14.5 0.00 0.00 0.00 68 1010.9
20260507094536 17 338 6.4 16.1 0.00 0.00 0.00 67 1011.0
20260507093515 16 338 4.8 14.5 0.00 0.00 0.00 69 1011.1
20260507092515 15 338 3.2 11.3 0.00 0.00 0.00 71 1010.9
20260507091515 15 338 8.0 14.5 0.00 0.00 0.00 71 1010.9
20260507090515 15 338 6.4 17.7 0.00 0.00 0.00 71 1010.8
20260507085515 15 338 8.0 12.9 0.00 0.00 0.00 73 1010.8
20260507084516 15 338 4.8 11.3 0.00 0.00 0.00 74 1010.7
20260507083516 15 338 8.0 16.1 0.00 0.00 0.00 75 1010.7
20260507082515 15 338 3.2 8.0 0.00 0.00 0.00 75 1010.9
20260507081516 15 338 3.2 8.0 0.00 0.00 0.00 75 1011.0
20260507080517 15 338 4.8 12.9 0.00 0.00 0.00 76 1011.0
20260507075538 14 338 4.8 11.3 0.00 0.00 0.00 79 1010.7
20260507074537 13 338 4.8 8.0 0.00 0.00 0.00 81 1010.6
20260507073517 13 338 6.4 14.5 0.00 0.00 0.00 82 1010.3
20260507072517 13 338 8.0 12.9 0.00 0.00 0.00 83 1010.4
20260507071517 12 338 6.4 11.3 0.00 0.00 0.00 84 1010.3
20260507070517 12 338 6.4 11.3 0.00 0.00 0.00 85 1010.3
20260507065517 12 338 4.8 8.0 0.00 0.00 0.00 85 1010.6
20260507064517 12 338 6.4 11.3 0.00 0.00 0.00 85 1010.2
20260507063517 12 338 6.4 11.3 0.00 0.00 0.00 85 1010.1
20260507062517 12 338 3.2 6.4 0.00 0.00 0.00 84 1010.1
20260507061517 12 338 4.8 8.0 0.00 0.00 0.00 82 1009.9
20260507060519 11 338 6.4 8.0 0.00 0.00 0.00 82 1010.0
20260507055517 11 0.0 1.6 0.00 0.00 0.00 81 1010.2
20260507054517 10 0.0 1.6 0.00 0.00 0.00 82 1010.0
20260507053517 10 0.0 0.0 0.00 0.00 0.00 83 1009.8
20260507052517 9 0.0 1.6 0.00 0.00 0.00 83 1009.7
20260507051517 9 0.0 3.2 0.00 0.00 0.00 83 1009.6
20260507050517 9 338 1.6 4.8 0.00 0.00 0.00 83 1009.6
20260507045517 8 0.0 0.0 0.00 0.00 0.00 84 1009.6
20260507044537 8 0.0 0.0 0.00 0.00 0.00 84 1009.6
20260507043537 8 0.0 0.0 0.00 0.00 0.00 84 1009.7
20260507042557 8 0.0 0.0 0.00 0.00 0.00 85 1009.8
20260507041517 9 0.0 0.0 0.00 0.00 0.00 84 1009.9
20260507040517 9 0.0 0.0 0.00 0.00 0.00 85 1009.9
20260507035517 9 0.0 0.0 0.00 0.00 0.00 84 1009.7
20260507034517 10 0.0 0.0 0.00 0.00 0.00 85 1009.7
20260507033517 10 0.0 0.0 0.00 0.00 0.00 84 1009.8
20260507032537 10 23 3.2 4.8 0.00 0.00 0.00 84 1009.6
20260507031517 11 315 4.8 6.4 0.00 0.00 0.00 84 1009.6
20260507030517 11 315 6.4 8.0 0.00 0.00 0.00 84 1009.6
20260507025517 10 338 4.8 6.4 0.00 0.00 0.00 84 1009.6
20260507024517 11 0.0 0.0 0.00 0.00 0.00 84 1009.7
20260507023537 11 0.0 0.0 0.00 0.00 0.00 84 1009.7
20260507022517 11 338 3.2 4.8 0.00 0.00 0.00 84 1009.7
20260507021517 11 338 1.6 6.4 0.00 0.00 0.00 84 1009.9
20260507020537 11 338 3.2 6.4 0.00 0.00 0.00 84 1009.9
20260507015517 11 338 3.2 4.8 0.00 0.00 0.00 84 1010.1
20260507014537 11 338 4.8 6.4 0.00 0.00 0.00 84 1010.1
20260507013517 11 338 4.8 6.4 0.00 0.00 0.00 84 1010.1
20260507012517 10 338 1.6 8.0 0.00 0.00 0.00 84 1010.2
20260507011517 10 0.0 0.0 0.00 0.00 0.00 85 1010.2
20260507010517 10 0.0 1.6 0.00 0.00 0.00 85 1010.3
20260507005537 11 0.0 0.0 0.00 0.00 0.00 85 1010.5
20260507004517 11 338 1.6 3.2 0.00 0.00 0.00 85 1010.6
20260507003517 11 0.0 1.6 0.00 0.00 0.00 85 1010.7
20260507002537 11 338 3.2 4.8 0.00 0.00 0.00 84 1010.9
20260507001517 11 338 4.8 6.4 0.00 0.00 0.00 84 1011.0
20260507000517 11 338 6.4 11.3 0.00 0.00 0.00 84 1011.1
20260506235524 12 338 6.4 8.0 0.00 0.00 0.00 84 1010.9
20260506234516 12 338 4.8 8.0 0.00 0.00 0.00 84 1011.0
20260506233517 11 315 3.2 6.4 0.00 0.00 0.00 84 1011.0
20260506232516 11 338 3.2 4.8 0.00 0.00 0.00 84 1010.9
20260506231517 11 338 3.2 3.2 0.00 0.00 0.00 84 1011.0
20260506230517 11 338 1.6 3.2 0.00 0.00 0.00 83 1010.9
20260506225537 11 338 4.8 6.4 0.00 0.00 0.00 83 1011.1
20260506224516 12 315 4.8 8.0 0.00 0.00 0.00 83 1011.0
20260506223516 12 315 1.6 3.2 0.00 0.00 0.00 81 1011.1
20260506222517 12 338 3.2 6.4 0.00 0.00 0.00 82 1011.1
20260506221517 12 0.0 0.0 0.00 0.00 0.00 81 1011.0
20260506220517 12 0.0 1.6 0.00 0.00 0.00 81 1011.0
20260506215537 13 338 3.2 6.4 0.00 0.00 0.00 81 1011.0
20260506214517 13 338 6.4 8.0 0.00 0.00 0.00 81 1011.2
20260506213517 13 338 6.4 12.9 0.00 0.00 0.00 81 1011.2
20260506212516 13 338 8.0 14.5 0.00 0.00 0.00 81 1011.2
20260506211517 13 338 6.4 12.9 0.00 0.00 0.00 81 1011.2
20260506210517 13 338 9.7 14.5 0.00 0.00 0.00 81 1011.1
20260506205516 13 338 9.7 14.5 0.00 0.00 0.00 81 1011.0
20260506204517 13 338 6.4 12.9 0.00 0.00 0.00 81 1011.1
20260506203516 13 338 8.0 16.1 0.00 0.00 0.00 81 1010.8
20260506202516 13 338 11.3 19.3 0.00 0.00 0.00 80 1010.7
20260506201516 13 338 8.0 16.1 0.00 0.00 0.00 80 1010.6
20260506200517 13 338 11.3 16.1 0.00 0.00 0.00 80 1010.3
20260506195516 13 338 11.3 17.7 0.00 0.00 0.00 80 1010.0
20260506194517 13 338 11.3 17.7 0.00 0.00 0.00 79 1009.8
20260506193516 13 338 9.7 14.5 0.00 0.00 0.00 79 1009.8
20260506192517 13 338 3.2 12.9 0.00 0.00 0.00 79 1009.6
20260506191516 13 338 6.4 16.1 0.00 0.00 0.00 78 1009.5
20260506190517 13 338 4.8 11.3 0.00 0.00 0.00 77 1009.5
20260506185517 14 338 1.6 8.0 0.00 0.00 0.00 76 1009.4
20260506184517 14 338 6.4 14.5 0.00 0.00 0.00 75 1009.3
20260506183517 15 338 6.4 16.1 0.00 0.00 0.00 73 1009.1
20260506182517 15 338 8.0 17.7 0.00 0.00 0.00 73 1008.8
20260506181516 15 338 4.8 14.5 0.00 0.00 0.00 73 1008.9
20260506180516 15 338 4.8 12.9 0.00 0.00 0.00 72 1008.8
20260506175556 15 338 9.7 19.3 0.00 0.00 0.00 71 1008.7
20260506174516 16 338 12.9 20.9 0.00 0.00 0.00 70 1008.7
20260506173536 16 338 8.0 19.3 0.00 0.00 0.00 69 1008.9
20260506172516 17 338 11.3 19.3 0.00 0.00 0.00 67 1008.8
20260506171516 17 338 9.7 19.3 0.00 0.00 0.00 65 1008.7
20260506170516 17 338 9.7 19.3 0.00 0.00 0.00 65 1008.7
20260506165516 17 338 9.7 17.7 0.00 0.00 0.00 64 1008.7
20260506164516 18 338 9.7 24.1 0.00 0.00 0.00 62 1008.4
20260506163516 18 338 6.4 17.7 0.00 0.00 0.00 63 1008.4
20260506162516 18 338 6.4 16.1 0.00 0.00 0.00 62 1008.5
20260506161516 18 338 6.4 22.5 0.00 0.00 0.00 61 1008.4
20260506160536 19 338 9.7 20.9 0.00 0.00 0.00 58 1008.6
20260506155516 20 338 9.7 19.3 0.00 0.00 0.00 58 1008.7
20260506154516 20 338 9.7 17.7 0.00 0.00 0.00 57 1008.6
20260506153516 19 338 8.0 19.3 0.00 0.00 0.00 58 1008.6
20260506152516 18 338 8.0 17.7 0.00 0.00 0.00 64 1008.6
20260506151516 17 338 11.3 20.9 0.00 0.00 0.00 65 1008.5
20260506150516 17 338 14.5 20.9 0.00 0.00 0.00 67 1008.6
20260506145536 17 338 9.7 20.9 0.00 0.00 0.00 66 1008.4
20260506144536 17 338 11.3 22.5 0.00 0.00 0.00 66 1008.3
20260506143516 17 338 12.9 19.3 0.00 0.00 0.00 67 1008.5
20260506142516 17 338 11.3 17.7 0.00 0.00 0.00 68 1008.9
20260506141516 17 338 4.8 19.3 0.00 0.00 0.00 66 1008.9
20260506140516 17 338 12.9 20.9 0.00 0.00 0.00 66 1009.0
20260506135516 17 338 11.3 20.9 0.00 0.00 0.00 65 1009.0
20260506134516 17 338 3.2 17.7 0.00 0.00 0.00 65 1009.1
20260506133516 18 338 6.4 14.5 0.00 0.00 0.00 61 1009.3
20260506132516 18 338 8.0 19.3 0.00 0.00 0.00 61 1009.2
20260506131516 18 338 4.8 17.7 0.00 0.00 0.00 61 1009.3
20260506130516 18 338 1.6 8.0 0.00 0.00 0.00 63 1009.3
20260506125516 19 338 1.6 8.0 0.00 0.00 0.00 58 1009.4
20260506124536 20 0.0 8.0 0.00 0.00 0.00 51 1009.5